Location: Biharia
(46.4333°N, 22.8000°E)
Time: 00:29:45
(UTC+00:00)

Cosmos 389 Rocket - Pass Details

Date: 16 October 2021
Orbit: 439 x 468 km, 81.1° (Epoch: 02 December)

Event Time Altitude Azimuth Distance (km) Brightness Sun altitude
Rises 17:20:12 0° 210° (SSW) 2,414 6.4 -18.0°
Reaches altitude 10° 17:22:23 10° 220° (SW) 1,551 5.6 -18.3°
Maximum altitude 17:25:28 33° 287° (WNW) 770 4.2 -18.9°
Drops below altitude 10° 17:28:36 10° 353° (N) 1,568 5.3 -19.4°
Sets 17:30:48 0° 3° (N) 2,447 6.2 -19.8°
